Location: Unspecified
(0.0000°N, 0.0000°E)
Time: 20:59:07
(UTC+00:00)

Hubble Space Telescope - Pass Details

Date: 20 June 2017
Orbit: 538 x 541 km, 28.5° (Epoch: 26 June)

Event Time Altitude Azimuth Distance (km) Brightness Sun altitude
Exits shadow 04:10:40 26° 138° (SE) 1,078 2.4 -25.3°
Drops below altitude 10° 04:13:41 10° 92° (E) 1,788 4.2 -24.6°
Sets 04:16:12 0° 80° (E) 2,678 5.6 -24.0°
